GFSMA_con_sbcape_093.txt.gz
CAPE
767 749 333 236 106 99 64 91 105 99 74 205 229 156 18 0 0 3 13 31 13 12 9 20 17 16 21 17 23 12 5 11 24 14 14 16 18 12 11 11 9 8 6
701 674 477 348 176 83 59 37 86 57 22 160 131 98 20 13 0 0 0 2 1 2 15 29 21 13 18 12 24 18 9 12 9 18 11 11 14 13 12 4 2 0 0
755 593 389 243 220 131 4 8 14 5 13 87 62 63 35 4 0 0 6 0 0 0 4 30 35 21 18 19 10 18 6 11 7 17 11 9 3 0 0 0 0 0 0
761 608 352 140 279 65 0 0 3 3 1 11 24 66 59 5 0 0 0 0 0 0 4 19 30 40 47 22 8 15 10 10 13 11 12 4 2 1 0 0 0 0 0
715 516 314 200 202 86 0 0 1 2 6 33 71 80 9 4 0 0 0 0 0 0 0 10 17 24 45 43 7 12 15 12 12 10 9 3 2 1 1 0 0 0 0
566 355 216 130 123 84 4 0 0 0 4 37 138 92 2 0 1 0 0 0 0 0 0 9 19 9 11 26 29 13 15 17 18 14 12 5 4 3 3 2 0 0 0
383 228 157 91 124 45 0 0 1 8 19 30 16 0 4 0 0 0 0 0 0 0 0 0 2 0 0 3 20 23 20 24 21 18 14 10 10 14 6 3 2 1 2
231 128 170 165 76 2 3 19 16 14 12 46 14 6 0 0 0 0 0 0 0 0 0 0 0 0 0 0 0 18 22 33 24 21 19 21 18 13 4 2 2 2 1
167 109 110 122 111 91 46 33 15 4 5 18 7 0 1 0 5 2 0 3 0 0 0 0 0 0 0 0 0 0 0 2 29 34 31 22 19 18 11 2 1 1 1
255 95 99 59 50 25 51 56 6 0 1 2 22 45 0 0 0 1 7 4 1 7 0 0 0 0 0 0 0 0 0 0 0 10 42 44 25 19 10 6 3 2 2
114 102 64 3 40 27 58 114 34 0 0 1 1 20 2 0 2 0 0 0 3 0 0 0 0 0 0 0 0 0 0 0 0 0 0 34 113 68 63 62 68 69 77
138 67 84 49 4 13 37 44 68 10 1 1 5 1 1 0 0 0 0 0 0 0 0 0 0 0 0 0 0 0 0 0 0 0 0 0 22 106 184 162 151 170 178
0 0 0 0 0 1 11 18 45 40 1 0 0 0 0 0 1 24 33 6 2 0 0 0 0 0 0 0 0 0 0 0 0 0 0 0 0 2 34 107 235 319 322
0 0 0 0 2 0 3 2 16 24 9 1 0 0 8 4 7 41 42 53 37 16 2 0 0 0 0 0 0 0 0 0 0 0 0 0 0 0 0 0 6 50 137
0 0 0 0 0 1 1 1 11 6 22 2 1 0 5 18 33 24 20 22 18 21 32 3 13 8 5 7 18 0 0 0 0 0 0 0 0 0 0 0 0 0 8
0 0 0 0 2 1 1 1 8 1 3 0 1 6 0 3 17 21 23 20 4 3 0 0 16 21 33 60 48 50 27 14 0 0 0 0 0 0 0 0 0 0 0
0 0 0 1 1 1 1 0 1 1 1 1 1 8 11 3 1 8 13 13 25 17 3 20 9 0 8 27 19 4 1 5 1 0 0 0 0 0 0 0 0 0 0
1 0 0 0 0 1 0 0 0 1 1 11 6 7 0 0 0 1 10 31 3 21 13 26 27 10 0 0 0 1 0 0 0 0 0 0 0 0 0 0 0 0 0
4 0 0 0 0 2 0 0 0 0 0 0 0 0 0 0 0 0 1 1 11 11 16 14 4 0 0 0 0 0 0 0 0 0 0 0 0 0 0 0 0 0 0
4 4 1 1 0 0 0 0 0 0 0 0 0 0 0 0 0 0 0 4 7 2 1 1 0 0 0 0 0 0 0 0 0 0 0 0 1 3 2 2 2 2 2
0 0 0 0 0 0 0 0 0 0 0 0 0 0 0 0 1 1 0 0 0 1 0 0 0 0 0 0 0 0 0 0 1 1 3 2 1 2 3 3 2 3 3
0 0 0 0 0 0 0 0 0 0 0 0 1 1 1 1 1 0 0 1 0 0 0 0 0 0 1 0 1 0 1 0 0 1 0 4 0 2 2 3 3 2 2
1 1 1 1 1 1 0 0 0 0 0 0 0 0 1 1 0 0 1 1 1 1 0 0 0 1 0 1 1 0 0 0 1 0 0 1 0 1 2 1 2 1 0
1 1 1 2 2 3 1 1 0 0 1 1 1 0 0 1 0 0 0 0 0 0 0 1 1 1 0 0 0 1 0 1 1 0 0 0 0 0 0 0 0 0 0
2 2 1 2 2 3 3 1 0 0 1 1 0 0 0 0 0 1 0 1 0 1 2 4 2 1 0 0 0 0 0 0 0 0 0 0 0 0 0 0 0 0 0
2 1 1 1 1 2 3 1 0 0 0 0 0 0 1 0 1 0 0 0 0 1 1 0 0 0 0 0 0 0 0 0 0 0 0 0 0 0 0 0 0 0 0

GFSMA_con_sbcape_096.txt.gz
CAPE
421 247 187 87 74 133 172 108 56 106 210 250 167 76 43 73 57 32 54 112 333 440 393 327 319 226 72 33 38 26 17 10 12 8 5 19 24 20 7 14 14 11 8
480 386 296 217 167 140 123 51 55 31 39 173 160 82 33 16 39 2 3 12 72 93 141 108 88 52 42 37 30 30 26 18 20 8 6 22 20 18 17 15 9 8 8
483 478 366 401 247 138 30 7 20 11 11 131 73 72 33 13 6 0 0 0 1 0 0 33 61 40 32 21 28 24 26 31 18 11 22 17 14 10 11 12 6 4 5
420 345 367 319 346 246 99 44 19 17 3 22 26 25 33 9 4 0 0 0 0 0 0 8 31 36 42 15 13 10 6 13 24 8 7 16 9 8 8 8 3 2 2
378 325 274 236 356 295 173 80 24 8 3 1 4 15 20 13 0 3 0 0 0 0 0 2 17 18 35 40 13 13 16 9 6 10 12 16 16 13 10 6 2 1 0
439 336 158 158 267 119 27 29 7 0 0 0 22 65 28 1 0 0 0 0 0 0 0 0 1 10 18 34 39 25 22 15 10 9 8 4 11 15 12 4 1 1 0
303 267 161 101 144 135 35 0 0 0 1 1 6 52 1 0 0 0 0 0 0 0 0 0 0 1 11 20 31 35 17 21 21 11 12 8 4 22 15 8 4 2 2
267 388 183 140 141 160 43 1 0 1 6 5 0 0 0 1 0 0 0 0 0 0 0 0 0 0 0 0 0 21 11 25 19 15 12 23 8 16 12 12 9 5 4
205 200 153 106 73 56 0 1 0 6 12 15 0 0 1 3 0 0 0 0 0 0 0 0 0 0 0 0 0 0 2 6 27 27 34 26 29 30 17 8 7 5 3
280 83 67 78 108 50 16 0 6 7 18 25 7 0 0 0 0 0 0 0 0 0 0 0 0 0 0 0 0 0 0 0 0 6 22 23 23 20 19 14 12 4 2
298 182 86 66 58 22 6 13 1 0 12 25 11 0 0 0 0 0 1 0 0 0 0 0 0 0 0 0 0 0 0 0 0 0 0 27 53 62 69 73 75 57 40
88 106 64 71 30 23 2 31 10 0 1 8 7 2 0 0 0 0 0 3 0 0 0 0 0 0 0 0 0 0 0 0 0 0 0 0 49 150 158 158 163 168 149
62 132 55 89 55 7 2 16 69 12 0 0 5 2 0 0 0 0 0 3 3 0 0 0 0 0 0 0 0 0 0 0 0 0 0 0 4 19 88 182 233 242 237
29 3 0 0 0 0 1 6 39 45 3 0 0 2 0 0 0 0 0 5 0 0 0 0 0 0 0 0 0 0 0 0 0 0 0 0 0 0 1 12 58 112 188
0 0 0 0 0 0 0 1 26 53 18 1 2 1 1 0 0 0 0 8 8 25 11 9 18 1 0 0 0 0 0 0 0 0 0 0 0 0 0 0 0 0 6
0 0 0 0 0 1 2 8 16 3 4 20 1 4 0 0 0 0 0 4 10 20 44 28 37 22 9 7 1 2 0 3 0 0 0 0 0 0 0 0 0 0 0
0 0 0 0 1 0 3 3 1 1 16 2 1 7 1 0 0 0 0 0 1 0 2 0 1 0 6 45 25 8 26 34 18 0 0 0 0 0 0 0 0 0 0
0 0 0 0 0 1 2 1 0 1 0 1 1 1 2 0 0 0 0 0 0 2 0 0 0 0 0 0 1 2 2 1 0 0 0 0 0 0 0 0 0 0 0
0 0 0 0 1 2 1 0 0 0 1 0 0 1 1 0 0 0 0 0 0 0 0 0 0 0 0 0 1 0 0 0 0 1 0 1 2 1 1 1 1 1 1
2 1 1 0 0 0 0 0 0 0 1 1 0 0 1 0 0 0 0 0 0 0 0 5 0 0 0 0 0 0 0 0 1 0 1 1 2 2 2 2 2 2 2
0 0 0 0 0 0 0 0 0 0 0 1 0 0 0 1 1 1 0 0 0 0 0 1 0 0 0 0 0 0 0 1 2 0 4 4 2 3 3 3 4 4 3
0 0 0 0 0 0 0 1 0 0 0 0 1 1 0 0 0 0 0 0 0 0 0 0 0 0 0 0 0 0 0 0 0 0 0 3 1 2 2 2 3 1 0
0 1 1 1 1 1 0 0 0 0 0 0 0 0 1 1 0 0 1 1 1 0 0 0 0 0 0 0 0 0 0 0 1 0 0 1 0 1 0 1 0 0 0
1 1 1 1 1 3 2 1 0 0 0 0 0 0 1 1 0 0 0 0 0 0 0 0 0 0 0 0 0 0 0 1 1 0 0 1 0 0 0 0 0 0 0
1 1 1 1 2 3 3 1 0 0 0 0 0 0 0 0 1 1 0 1 1 1 2 2 2 1 0 0 0 0 0 0 0 0 0 0 0 0 0 0 0 0 0
2 1 1 1 3 2 4 2 0 0 0 1 0 0 2 0 1 1 0 0 0 0 0 0 0 0 0 0 0 0 0 0 0 0 0 0 0 0 0 0 0 0 0

GFSMA_con_sbcape_099.txt.gz
CAPE
540 270 238 229 223 82 40 92 46 248 391 383 150 54 80 75 55 113 152 139 281 628 914 722 603 424 239 96 46 29 15 10 3 2 11 5 3 14 6 6 24 22 23
389 257 81 63 30 67 47 58 28 51 167 157 90 59 80 44 55 74 109 99 170 467 713 799 634 497 335 114 70 34 26 20 14 9 7 8 5 9 5 22 20 17 9
288 300 220 93 12 28 7 5 1 2 30 94 63 76 72 59 48 21 35 52 72 135 284 331 418 469 263 117 47 44 35 37 19 9 12 14 19 20 21 18 16 13 12
345 298 436 356 24 81 68 45 27 11 13 63 33 42 57 58 43 39 19 14 0 0 0 16 104 180 161 62 41 47 36 19 16 22 17 29 23 18 17 19 14 11 9
349 377 337 252 166 182 187 135 44 50 31 12 12 14 29 40 28 39 21 0 0 0 0 0 12 23 40 40 37 27 17 15 35 25 18 10 16 17 18 19 16 10 7
334 235 152 137 145 308 232 168 84 18 29 11 22 21 12 28 10 22 4 0 0 0 0 0 1 10 12 30 45 27 33 34 34 31 27 20 10 11 13 16 13 11 8
267 214 58 106 254 241 129 162 74 9 1 0 5 11 8 10 2 10 2 0 0 0 0 0 0 0 4 22 33 32 48 40 35 20 34 19 12 6 5 13 13 12 8
259 186 55 141 141 93 20 40 16 1 2 1 2 0 1 1 1 2 1 0 0 0 0 0 0 0 0 10 7 41 46 51 15 21 18 39 16 14 9 16 3 6 10
282 393 131 140 129 98 24 2 3 0 0 2 0 0 1 0 0 1 1 0 0 0 0 0 0 0 0 0 0 3 13 16 37 29 15 41 39 22 17 10 6 9 12
121 192 146 110 112 77 19 2 0 0 0 0 0 1 0 0 0 2 1 0 0 0 0 0 0 0 0 0 0 0 0 0 0 29 43 44 28 28 28 12 8 10 9
86 92 116 79 86 32 5 5 2 2 0 0 0 0 1 0 0 0 0 2 0 0 0 0 0 0 0 0 0 0 0 0 0 0 13 42 32 23 31 36 49 24 12
167 130 94 102 90 37 5 2 1 2 1 0 9 4 6 0 0 0 0 0 0 0 0 0 0 0 0 0 0 0 0 0 0 0 0 0 34 108 113 124 126 98 108
49 130 66 57 20 0 1 0 0 0 1 0 6 0 0 0 0 0 0 0 0 0 0 0 0 0 0 0 0 0 0 0 0 0 0 0 0 9 98 156 192 218 234
37 16 35 8 3 0 1 0 9 1 3 0 2 6 0 0 0 0 0 0 0 0 0 0 0 0 0 0 0 0 0 0 0 0 0 0 0 0 0 4 67 136 177
45 41 15 1 0 1 2 6 9 13 15 5 6 9 0 0 0 0 0 0 0 0 0 0 4 0 0 0 0 0 0 0 0 0 0 0 0 0 0 0 0 0 0
0 0 0 0 0 0 0 0 0 1 12 31 17 9 1 0 0 0 0 0 0 0 8 11 4 7 2 0 0 0 0 0 0 0 0 0 0 0 0 0 0 0 0
0 0 0 0 0 0 0 0 4 5 18 12 5 4 1 0 0 0 0 0 0 0 9 0 2 3 14 6 0 0 0 0 0 0 0 1 0 0 0 0 0 0 0
0 0 0 0 0 0 0 0 4 1 1 1 2 30 15 0 0 0 0 0 0 0 0 0 0 0 0 8 0 0 0 0 0 0 0 0 0 0 0 0 0 0 0
0 0 0 0 0 0 0 0 1 1 0 0 1 27 1 1 1 0 0 0 0 0 0 0 0 0 0 0 0 0 1 0 0 1 1 1 1 1 1 1 1 1 2
0 0 0 0 0 0 0 0 0 0 0 0 1 7 1 4 0 0 0 0 0 0 0 0 1 0 0 0 0 0 1 2 2 1 1 1 2 3 2 2 2 2 2
0 0 0 0 0 0 0 0 0 0 1 0 0 1 1 1 1 0 0 0 0 0 0 0 0 0 0 0 0 0 0 1 1 0 4 4 3 2 3 2 3 2 1
0 0 0 0 0 0 0 1 1 0 0 0 1 1 1 1 0 0 0 0 2 0 0 0 0 0 1 0 0 0 0 1 0 0 2 2 1 2 2 2 2 0 0
0 0 1 1 1 1 0 0 0 0 0 0 1 0 0 1 0 0 1 1 1 0 0 0 0 0 0 0 0 0 0 0 1 0 0 2 0 1 0 2 0 0 0
1 2 1 1 1 3 1 0 0 0 0 1 1 1 1 1 1 0 0 0 0 0 0 0 0 0 0 0 0 0 0 1 0 0 0 1 0 0 0 0 0 0 0
1 3 2 1 2 2 2 1 0 0 0 1 1 0 0 0 1 1 0 0 0 1 3 4 3 2 1 1 0 0 0 0 0 0 0 0 0 0 0 0 0 0 0
1 0 1 1 4 2 4 1 0 0 0 1 0 0 2 1 2 1 0 0 0 0 0 0 0 0 0 0 0 0 0 0 0 0 0 0 0 0 0 5 0 0 0

GFSMA_con_sbcape_102.txt.gz
CAPE
1018 584 460 473 111 0 0 0 0 52 122 136 104 186 268 171 98 85 133 297 494 743 1280 1030 810 659 485 254 191 47 19 13 5 0 0 11 14 33 25 20 20 5 6
935 536 479 506 101 0 0 0 0 8 96 215 181 143 164 35 47 69 51 93 86 373 595 920 818 680 535 254 168 93 25 17 11 10 10 15 21 15 2 29 10 17 4
763 515 426 290 157 0 0 0 1 0 29 82 136 86 68 32 59 47 44 60 41 114 241 468 561 660 492 290 142 61 36 43 25 9 13 7 18 17 16 19 4 6 6
406 258 416 300 58 17 8 1 2 29 0 11 44 70 47 26 42 59 56 43 12 79 129 320 377 350 351 299 145 55 43 36 32 30 24 17 24 11 7 8 20 9 2
401 454 590 340 41 75 50 16 46 61 1 5 0 63 49 26 41 57 57 32 2 0 10 25 98 168 158 242 108 48 48 38 29 34 27 32 11 16 10 14 19 17 14
376 411 492 333 179 126 83 81 99 40 16 4 50 38 21 25 32 39 34 26 2 0 0 1 0 1 21 45 60 47 43 22 34 33 24 22 8 7 13 13 15 13 10
355 441 338 251 166 171 156 178 169 118 32 2 2 2 1 6 2 16 26 9 1 0 0 0 0 0 5 17 38 39 38 22 43 48 32 26 11 7 4 8 18 17 10
388 430 282 229 190 268 158 187 137 108 54 3 0 0 0 0 3 23 20 20 0 0 0 0 0 0 0 3 4 44 41 48 32 28 29 36 31 16 11 6 6 13 11
438 450 240 231 222 192 119 114 91 58 58 2 0 0 0 1 0 1 9 11 1 0 0 0 0 0 0 0 1 18 25 40 62 47 47 46 37 17 13 9 9 8 5
466 418 189 210 187 141 91 61 57 25 1 9 0 0 0 0 0 1 1 0 1 0 0 0 0 0 0 0 0 0 1 13 27 42 44 52 41 32 30 23 18 11 11
391 288 151 91 130 92 82 52 17 2 10 2 1 0 0 0 0 0 4 2 1 1 0 0 0 0 0 0 0 0 0 0 0 7 28 39 45 33 28 28 30 18 12
198 117 80 35 77 94 40 18 8 1 0 0 0 0 0 0 0 0 0 1 0 1 0 0 0 0 0 0 0 0 0 0 0 0 0 11 38 38 22 26 28 26 19
199 77 74 43 78 88 59 22 0 1 0 2 5 0 0 0 0 0 0 0 0 1 1 0 0 0 0 0 0 0 0 0 0 0 0 0 0 17 25 67 99 143 171
214 125 105 55 54 46 16 0 0 0 1 4 3 1 0 0 0 0 0 0 1 1 1 0 0 0 0 0 0 0 0 0 0 0 0 0 0 0 0 10 70 99 113
5 20 9 8 15 14 0 1 1 3 1 1 5 4 2 0 0 0 0 0 0 0 1 0 0 0 0 0 0 0 0 0 0 0 0 0 0 0 0 0 0 0 0
7 2 0 0 1 2 0 1 3 4 17 18 10 5 11 3 0 0 0 0 0 0 0 0 0 0 0 0 0 0 0 0 0 0 0 0 0 0 0 0 0 0 0
1 0 0 0 0 0 0 0 0 0 1 1 2 12 14 11 0 0 0 0 0 0 0 0 0 1 1 0 0 0 0 0 0 0 0 0 0 0 0 0 0 0 0
1 0 0 0 0 0 0 0 0 0 0 1 4 5 4 4 0 0 0 0 0 0 0 0 0 0 1 9 3 1 1 0 1 0 0 0 0 0 0 0 0 0 0
0 0 0 0 0 0 0 0 0 0 1 2 2 3 2 9 25 1 0 0 0 0 0 0 0 0 0 1 0 1 1 1 1 2 1 0 1 1 1 1 2 2 2
0 0 0 0 0 0 0 0 0 0 0 0 0 1 1 3 26 2 1 0 0 0 0 0 0 0 0 0 0 0 2 3 2 2 2 1 2 4 3 3 4 4 4
0 0 0 0 0 0 0 0 0 0 0 0 0 0 2 0 1 0 0 0 0 0 0 0 0 0 0 0 0 0 1 1 2 2 3 3 2 2 2 3 4 2 1
0 0 0 0 0 0 0 1 1 0 0 0 1 1 1 1 1 0 0 0 1 1 0 0 0 0 1 0 0 0 0 0 0 0 2 3 1 2 2 2 2 1 1
0 1 1 1 1 1 0 0 0 0 0 1 1 0 1 1 0 1 0 0 0 0 0 0 0 0 0 1 0 0 0 0 0 0 0 2 0 1 2 5 2 0 0
1 2 1 1 1 2 1 0 0 0 0 1 1 1 1 1 1 0 0 0 0 0 0 0 0 0 0 0 0 0 0 0 0 0 0 0 0 0 0 0 4 6 3
1 1 2 1 2 2 2 0 0 0 0 1 1 0 0 0 1 1 0 0 0 0 2 4 4 2 1 0 0 0 0 0 0 0 0 0 0 0 0 1 0 1 0
1 0 0 0 2 2 4 1 0 0 1 1 1 1 4 1 2 1 0 0 0 0 0 0 0 0 0 0 0 0 0 0 0 0 0 0 0 0 1 0 0 0 0

GFSMA_con_sbcape_108.txt.gz
CAPE
2730 2528 2304 2289 2419 2210 2183 2187 1924 1915 1779 1770 1648 1668 1532 1452 1251 1442 1027 43 87 202 340 592 716 881 758 773 663 470 135 6 0 0 0 0 0 3 5 20 23 22 21
2564 2363 2442 2430 2428 2321 2206 2115 2026 1967 1792 1606 1539 1592 1412 1357 1145 1228 1053 493 78 111 109 306 272 491 613 557 486 342 132 6 5 0 0 0 1 8 13 24 21 25 21
2548 2350 2250 2295 2375 2299 2352 2247 2098 1901 1772 1397 1462 1484 1303 1203 1189 1090 740 173 73 3 25 88 84 218 754 565 386 304 96 6 10 11 3 4 13 18 18 22 23 21 14
2371 2316 1830 1995 2073 2419 2341 2156 1891 1686 1793 1552 1442 1290 1181 1210 1101 1015 504 123 179 218 31 6 1 133 514 574 373 226 41 23 30 23 26 15 25 27 21 25 10 23 25
1919 1872 1635 1807 1820 1708 1987 1913 1779 1753 1569 1325 1309 1237 1149 1035 927 710 155 63 129 198 224 50 0 65 221 309 429 271 105 19 20 17 17 21 26 26 21 32 10 21 11
1655 1822 1750 1938 1482 1460 1726 1664 1433 1334 1347 1198 802 834 880 875 891 715 382 70 30 157 102 110 56 131 2 136 256 291 163 29 9 13 17 21 32 35 29 26 21 28 8
1760 1671 1685 1689 1346 1347 1384 1352 1438 1074 1124 919 445 345 659 680 619 667 451 83 188 114 151 80 145 112 62 42 101 178 153 43 26 11 22 41 43 35 31 25 26 21 17
1741 1615 1760 1565 1374 1369 1343 1132 995 664 808 963 379 138 153 187 503 619 481 304 193 171 210 109 47 78 57 402 245 92 168 83 50 22 42 40 41 31 28 33 29 23 23
1796 1600 1642 1703 1468 1498 1377 1205 876 733 472 403 675 158 8 46 17 205 405 283 397 256 223 248 107 48 48 94 120 43 21 27 48 53 58 48 40 34 34 34 37 25 28
2067 1762 1712 1744 1774 1391 1378 1403 902 1096 913 438 435 524 16 65 132 220 129 379 438 328 159 288 197 164 59 89 64 29 0 1 6 34 52 57 43 39 39 36 26 33 22
1702 1902 1946 1869 1778 1459 1239 1322 1117 1249 1379 1065 414 240 302 1 0 52 264 89 65 137 326 193 135 137 137 82 99 14 0 0 0 17 53 64 44 44 36 36 33 29 26
1395 1572 1738 1876 1845 1347 1089 1232 1524 1472 1124 1147 959 746 500 37 3 1 52 77 165 88 60 60 50 61 11 11 19 5 0 0 0 2 26 38 41 46 40 32 32 29 36
1401 1440 1472 1585 1449 1346 1663 1545 1731 1512 1320 1236 849 951 775 756 251 65 184 155 141 101 12 13 10 9 2 0 1 0 0 0 0 0 7 12 22 33 33 30 32 35 44
1415 1363 1343 1430 1381 1544 1390 1503 1502 1349 1166 1281 629 638 284 188 135 21 5 29 4 5 8 5 9 10 7 1 1 0 7 0 0 0 0 0 1 13 15 14 20 27 43
1588 1361 1288 1198 1275 1124 849 1121 1271 1194 835 951 748 391 197 157 179 110 18 8 14 5 9 11 20 11 17 8 0 0 0 0 0 0 0 0 0 0 2 9 10 15 20
1847 1467 1302 1035 935 696 521 868 988 883 521 720 529 417 139 194 119 182 252 188 121 13 40 22 30 29 13 1 0 22 26 14 0 0 0 0 0 0 0 0 0 0 2
1553 1410 1179 704 691 603 394 394 459 532 516 579 335 353 94 210 105 142 274 258 160 142 59 9 83 92 10 18 1 0 31 63 53 0 0 0 0 0 0 0 0 0 0
953 718 701 491 389 434 398 423 438 345 378 341 200 69 122 36 41 81 52 120 123 118 166 28 2 38 27 4 0 2 26 52 47 0 0 0 0 0 0 0 0 0 0
428 378 342 317 270 307 248 323 234 168 190 173 116 145 143 154 162 211 165 45 33 54 37 38 12 9 11 2 3 0 1 1 2 2 0 0 0 0 0 0 0 0 0
126 120 129 129 110 103 94 75 24 7 28 12 1 1 0 0 1 2 4 12 6 3 7 10 3 3 8 3 0 0 2 3 4 3 5 3 2 3 2 1 1 1 2
3 2 4 9 4 4 2 16 12 10 5 1 1 0 1 1 1 1 2 4 8 2 1 1 0 0 1 5 0 0 1 2 6 4 4 5 5 4 6 5 7 6 5
2 2 3 3 3 2 0 1 4 4 1 0 0 1 1 1 0 0 1 1 0 1 2 1 0 1 0 0 0 0 0 0 1 2 3 2 2 3 4 3 5 5 5
2 2 3 2 2 2 0 0 0 0 1 1 1 1 1 1 2 1 0 0 0 1 0 0 0 1 0 0 0 0 0 0 1 0 0 1 1 0 2 7 8 8 6
1 0 0 0 0 2 1 0 0 1 1 3 3 3 3 2 1 1 0 3 4 2 1 0 0 0 0 0 0 0 0 0 0 0 0 2 2 2 0 3 6 7 10
0 1 1 1 0 0 1 1 0 1 2 2 3 4 3 2 1 0 1 2 3 5 5 5 2 1 1 0 0 0 0 0 0 0 0 0 3 0 0 0 1 12 11
0 0 1 1 5 4 1 0 0 1 2 3 4 5 8 5 2 1 1 1 1 1 1 1 1 0 0 0 0 0 0 0 0 0 0 1 0 0 0 2 3 2 4

GFSMA_con_sbcape_114.txt.gz
CAPE
2398 2403 2083 2229 2305 2130 2100 1944 1916 1882 1857 1762 1708 1444 1345 1318 1227 1116 1091 226 228 695 1585 1282 985 854 750 585 367 587 711 747 636 541 390 299 270 201 26 0 4 4 12
2015 2405 2189 2240 2403 2293 2136 1972 1770 1541 1842 1774 1573 1602 1378 1371 1201 1274 1190 172 151 202 665 1246 916 513 416 416 118 253 413 518 435 388 310 200 152 96 15 5 14 12 15
2354 2299 2471 1986 1860 2292 2111 2043 2175 2041 1946 1778 1583 1519 1426 1371 1229 1128 966 356 0 67 151 254 600 570 170 7 0 24 219 261 291 192 75 15 0 13 9 11 16 7 6
2278 2722 2223 2294 2431 1813 2324 2233 2143 1745 1857 1901 1649 1643 1564 1294 1149 1036 975 663 82 34 13 76 202 239 145 36 27 6 306 201 222 103 7 0 0 6 6 13 10 6 14
2654 2327 2445 2216 2156 2453 2094 2303 2002 1819 1855 1682 1676 1614 1410 1185 1057 1029 863 693 230 104 93 1 9 14 19 32 3 79 232 237 194 87 14 0 0 0 5 16 11 18 9
2211 2409 2348 2398 2025 2068 2139 2158 1976 2056 1842 1661 1746 1386 1334 1149 1004 970 852 702 400 134 143 71 0 0 0 9 32 154 225 329 186 70 1 3 0 0 7 14 17 25 27
2401 2287 2250 2463 2077 1854 1827 1843 2065 1911 1890 1879 1530 1320 1206 1154 1090 871 736 549 382 193 172 122 5 3 0 0 11 138 238 552 222 123 71 2 6 6 9 17 11 16 34
2377 2496 2433 2413 2313 1927 1611 1803 2140 1840 1655 1736 1428 963 768 851 847 799 636 564 370 180 145 14 15 2 15 5 1 68 96 299 273 258 103 7 5 5 16 19 10 10 10
2544 2014 2241 2277 2078 1869 1569 1460 1929 1533 1378 1339 1369 653 379 301 436 566 582 449 296 269 161 22 3 0 6 19 10 1 4 100 196 213 124 1 0 9 24 25 16 16 6
1118 2136 1946 2211 1982 2038 1548 1289 1577 1556 1310 1145 1390 860 553 380 244 418 426 458 348 287 244 169 40 6 0 5 34 13 0 2 2 82 92 8 5 13 30 29 29 31 28
463 1752 1975 2090 2008 2092 1782 1281 1281 1516 1234 1057 1018 1049 819 655 493 399 442 349 509 386 242 235 142 39 2 0 0 10 2 0 0 0 22 24 24 19 25 31 31 42 37
32 1153 1725 1921 1861 1775 1874 1589 1493 1452 1244 1253 866 752 862 675 513 350 262 242 190 231 295 273 106 169 74 0 0 0 2 1 1 0 0 2 17 28 26 30 39 31 38
0 208 1318 1584 1714 1782 1867 1879 1762 1467 1400 1244 1030 761 636 544 416 216 241 198 172 234 191 229 193 97 101 56 28 0 0 1 1 0 0 0 0 9 11 21 32 40 38
0 0 1057 1197 907 1495 1559 1665 1677 1671 1480 1311 1098 905 678 383 357 203 134 172 244 183 103 19 14 60 103 14 54 0 0 0 1 0 0 0 0 0 2 6 19 17 23
4 2 31 1361 1513 1657 1506 1599 1729 1626 1477 1187 1270 1016 862 581 466 367 292 297 191 144 75 62 44 0 0 31 19 0 0 0 0 0 0 0 0 0 0 4 9 7 11
5 6 0 1022 1833 1731 1666 1692 1656 1463 1289 1244 729 488 509 56 206 411 251 132 90 53 27 36 15 8 0 0 0 1 0 0 0 0 0 0 0 0 0 0 0 0 6
4 5 3 823 1594 1569 1627 1677 1581 1445 1381 1310 1102 847 278 0 212 354 204 214 113 74 42 25 35 39 12 0 0 1 11 0 0 0 0 0 0 0 0 0 0 0 0
0 2 83 948 1249 1330 1306 1526 1549 1438 1387 1084 1014 962 612 430 311 318 253 190 126 128 64 36 30 34 14 0 0 1 1 0 0 0 0 0 0 0 0 0 0 0 0
1 30 784 918 1086 1195 1171 1427 1494 1432 1414 1207 1025 671 559 498 405 344 242 186 155 102 66 41 15 8 44 7 6 0 1 1 0 0 1 0 0 0 0 0 0 0 0
4 2 8 325 761 1054 1122 1189 1236 1232 1166 935 654 422 217 188 165 95 26 6 1 14 35 39 11 4 3 5 12 0 0 0 0 0 0 0 1 0 0 0 0 0 0
5 5 2 3 8 3 37 414 1009 1083 932 73 1 0 0 1 1 0 0 0 0 0 1 5 4 3 1 0 0 0 0 0 0 0 1 0 0 0 0 0 0 0 1
1 2 2 6 6 3 0 0 777 604 0 0 1 1 2 1 1 1 2 2 0 0 1 1 2 3 4 0 0 0 0 0 0 0 0 0 0 0 0 0 0 0 2
0 1 2 3 4 3 4 6 1 0 0 7 5 2 2 1 0 1 2 2 2 3 1 2 2 1 1 1 1 0 0 0 0 0 0 0 0 0 0 2 4 5 6
0 0 0 0 2 4 14 17 8 3 10 8 2 0 0 0 0 0 1 1 1 1 1 1 1 1 1 0 0 0 0 0 0 0 0 0 0 0 0 0 8 8 7
0 0 0 0 0 1 4 1 0 1 4 1 1 0 0 0 1 2 0 1 0 0 2 3 4 3 2 1 0 0 0 0 0 0 0 0 0 0 0 0 0 6 7
1 0 0 0 5 0 12 4 0 0 0 0 0 0 5 2 0 1 0 0 0 0 0 0 0 0 0 0 1 0 1 0 0 0 0 0 0 0 0 0 2 1 2

GFSMA_con_sbcape_117.txt.gz
CAPE
1483 1448 1416 1563 1554 1457 1412 1242 1237 1266 1232 1070 1079 1123 1054 911 717 545 78 213 496 1063 1978 1879 1459 1348 1018 823 633 335 237 413 518 747 430 217 130 87 30 0 1 0 0
1339 1453 1449 1453 1599 1528 1483 1330 1240 1268 1340 1132 1226 1259 1017 1009 901 705 176 18 169 414 1115 2032 1835 1479 1091 898 624 447 339 426 456 812 456 237 117 42 0 0 9 5 10
1586 1350 1467 1305 1567 1755 1471 1483 1133 859 1023 1121 1184 1022 962 909 941 843 449 7 7 77 241 984 1348 1440 1318 837 602 255 156 134 71 415 343 243 151 17 0 0 3 10 15
1815 1546 1338 1390 1052 1689 1616 1562 1403 1213 1018 1085 1015 919 907 863 871 810 414 130 0 0 63 335 455 652 518 626 384 109 90 13 217 314 248 184 144 35 0 0 9 13 14
1931 1868 1544 1393 1451 1244 1592 1621 1333 1157 920 1015 984 947 883 864 757 745 625 237 0 0 0 0 104 198 128 246 170 41 58 68 5 236 178 116 71 43 0 8 18 15 11
1359 1857 1724 1649 1257 1337 1421 1474 1543 1096 1055 988 1198 1027 792 655 569 601 511 359 25 0 0 0 0 0 10 89 216 169 80 148 321 208 151 70 23 18 0 11 19 19 16
1318 1370 1488 1381 1324 1406 1354 1124 1005 1365 1079 856 915 532 505 402 485 437 367 381 200 0 0 0 0 0 0 0 0 10 48 150 211 314 145 46 4 0 0 10 19 22 14
325 1175 1453 1439 1625 1257 800 1050 1076 816 1049 964 764 435 628 316 447 414 313 257 241 58 5 0 0 0 0 0 1 17 111 231 275 330 173 39 6 0 8 18 18 23 23
0 255 1257 1328 1355 1302 879 863 884 1113 1244 854 740 524 237 332 100 171 334 281 155 58 16 0 0 0 0 0 0 0 0 1 75 254 189 59 10 0 9 10 19 27 32
0 0 2 813 1285 1157 1006 815 950 1196 1019 1016 637 345 74 41 43 70 106 272 124 146 23 0 0 0 0 0 1 0 0 0 0 30 194 102 52 0 7 20 17 34 30
0 0 0 0 767 922 869 813 688 1266 894 853 891 1021 464 141 71 73 145 273 159 130 105 22 0 0 0 0 2 0 0 0 1 18 118 119 38 0 0 20 29 37 43
0 0 0 0 0 920 1141 832 748 842 1301 1228 716 580 784 693 449 129 60 107 300 135 199 90 41 14 0 0 0 0 0 0 1 3 46 12 0 0 1 8 25 44 47
0 0 0 0 0 217 1048 1190 791 820 1053 1218 821 771 647 625 494 387 84 67 124 74 58 83 92 70 23 0 0 0 0 1 1 1 3 0 0 0 0 1 14 35 45
1 0 0 0 0 0 511 932 899 962 1136 1193 960 882 737 577 422 237 314 84 75 45 14 52 29 55 64 34 0 0 0 1 1 1 1 0 0 0 0 0 0 7 20
7 2 1 1 0 0 47 863 832 708 1395 1443 1255 954 716 579 501 199 125 124 137 108 30 4 32 3 26 1 15 0 0 0 1 1 1 0 0 0 0 0 0 0 1
11 10 0 0 3 4 4 871 549 806 1068 1329 1325 1117 750 445 161 160 107 94 78 19 86 0 5 0 0 0 0 0 0 0 1 1 1 1 0 0 0 0 0 0 2
15 16 16 8 5 4 0 935 844 800 898 1050 1173 982 704 170 179 155 56 3 74 52 84 1 3 0 0 0 0 0 0 0 0 1 1 1 0 0 0 0 0 0 2
12 14 18 19 0 1 3 871 1338 1067 957 1098 1178 944 573 113 68 0 0 0 41 25 27 7 0 0 0 0 0 0 0 0 0 0 1 1 1 1 1 0 0 0 0
12 8 3 4 2 3 2 658 991 1261 1069 948 1011 963 915 363 26 30 100 177 153 81 20 0 0 0 0 0 0 0 0 1 0 0 0 1 1 1 1 1 0 0 0
9 6 6 3 2 0 95 632 642 665 696 937 766 912 891 375 8 33 163 124 79 76 17 26 0 0 0 0 0 0 1 0 0 0 0 0 0 1 1 1 1 0 0
7 3 4 5 1 1 1 3 41 551 722 227 0 0 1 1 19 44 0 0 0 0 0 0 0 0 0 0 1 0 0 0 0 0 0 0 0 0 1 1 0 0 1
3 0 0 2 2 3 0 0 0 187 1 0 0 0 0 0 2 2 1 0 0 0 0 0 0 0 0 0 0 0 0 0 0 0 0 0 0 0 0 0 1 1 1
0 1 0 2 0 0 2 3 0 3 2 4 7 13 5 12 0 0 1 1 1 1 0 0 0 1 0 1 1 0 0 0 0 0 0 0 0 0 0 0 0 0 0
0 0 0 0 0 4 2 4 1 4 1 4 3 6 9 3 6 2 4 0 0 0 0 1 0 0 1 1 2 0 0 0 0 0 0 0 0 0 0 0 7 5 4
0 0 0 0 0 1 11 5 0 0 4 6 10 2 9 1 5 3 1 1 1 0 4 4 4 3 2 3 1 0 0 0 0 0 0 0 0 0 0 0 0 8 7
0 0 0 0 5 0 15 11 2 0 0 0 0 0 5 3 5 2 0 0 0 0 0 0 0 0 0 0 1 0 1 0 0 0 0 0 0 0 0 0 0 0 1